This is the latest recevied weather packets stored in our database for station/object W0SS-13. If no packets are shown the sender has not sent any weather packets the latest 1 day(s).
| Time | Temp. | Humidity | Pressure | Rain* | Wind** | Luminosity | Snow |
|---|---|---|---|---|---|---|---|
| 1778025446 | 11.11° C | 78% | 1012.6 hPa | 0 mm | 0.89 m/s, 292° | 45 W/m² | - |
| 1778025144 | 11.11° C | 77% | 1012.7 hPa | 0 mm | 0.45 m/s, 281° | 49 W/m² | - |
| 1778024841 | 11.67° C | 77% | 1012.7 hPa | 0 mm | 0.45 m/s, 311° | 72 W/m² | - |
| 1778024538 | 11.67° C | 76% | 1012.8 hPa | 0 mm | 0.89 m/s, 273° | 114 W/m² | - |
| 1778024234 | 11.67° C | 77% | 1012.7 hPa | 0 mm | 0 m/s | 150 W/m² | - |
| 1778023933 | 11.67° C | 77% | 1012.3 hPa | 0 mm | 0 m/s | 131 W/m² | - |
| 1778023630 | 11.67° C | 76% | 1012.6 hPa | 0 mm | 0.45 m/s, 262° | 83 W/m² | - |
| 1778023327 | 11.67° C | 76% | 1012.7 hPa | 0 mm | 0 m/s | 110 W/m² | - |
| 1778023024 | 11.67° C | 76% | 1012.6 hPa | 0 mm | 0 m/s | 112 W/m² | - |
| 1778022723 | 11.11° C | 77% | 1012.7 hPa | 0 mm | 0 m/s | 99 W/m² | - |
| 1778022421 | 11.11° C | 78% | 1012.9 hPa | 0 mm | 0 m/s | 90 W/m² | - |
| 1778022117 | 11.11° C | 77% | 1012.8 hPa | 0 mm | 0 m/s | 75 W/m² | - |
| 1778021813 | 11.11° C | 78% | 1013 hPa | 0 mm | 0.45 m/s, 247° | 96 W/m² | - |
| 1778021510 | 11.11° C | 76% | 1012.8 hPa | 0 mm | 0.45 m/s, 249° | 74 W/m² | - |
| 1778021205 | 11.67° C | 77% | 1013 hPa | 0 mm | 0 m/s | 99 W/m² | - |
| 1778020903 | 11.67° C | 77% | 1012.6 hPa | 0 mm | 0 m/s | 96 W/m² | - |
| 1778020601 | 11.67° C | 77% | 1012.8 hPa | 0 mm | 0 m/s | 88 W/m² | - |
| 1778020297 | 11.11° C | 77% | 1012.7 hPa | 0 mm | 0 m/s | 109 W/m² | - |
| 1778019993 | 11.11° C | 77% | 1012.5 hPa | 0 mm | 0.45 m/s, 300° | 129 W/m² | - |
| 1778019689 | 11.11° C | 77% | 1012.8 hPa | 0 mm | 0 m/s | 109 W/m² | - |
| 1778019386 | 11.11° C | 77% | 1012.9 hPa | 0 mm | 0 m/s | 109 W/m² | - |
| 1778019083 | 11.11° C | 77% | 1012.8 hPa | 0 mm | 0 m/s | 117 W/m² | - |
| 1778018780 | 11.11° C | 78% | 1012.8 hPa | 0 mm | 0 m/s | 101 W/m² | - |
| 1778018478 | 11.11° C | 78% | 1012.8 hPa | 0 mm | 0.89 m/s, 17° | 147 W/m² | - |
| 1778018175 | 10.56° C | 79% | 1012.6 hPa | 0 mm | 0.89 m/s, 356° | 180 W/m² | - |
* Rain latest hour (hover to see other rain measurements)
** Current wind speed in m/s (hover to see current wind gust speed)